Location: Observatory
(52.1446°N, 0.4624°W)
Time: 02:06:02
(UTC+01:00)

ISS - Pass Details

Date: 26 May 2018
Orbit: 402 x 406 km, 51.6° (Epoch: 21 June)

Event Time Altitude Azimuth Distance (km) Brightness Sun altitude
Rises 00:06:57 0° 276° (W) 2,322 0.3 -15.9°
Reaches altitude 10° 00:09:02 10° 275° (W) 1,461 -0.8 -16.0°
Maximum altitude 00:12:18 75° 190° (S) 422 -4.0 -16.1°
Enters shadow 00:14:19 21° 107° (ESE) 958 -2.2 -16.1°
